,,,PA_Meas_PMT16A,,PR_Meas_QMR101_102,,RH_Meas_QMH101,,SR_Meas_QMS101,,TA_Meas_QMH101,,GenWind,,GenWind,
date,time,status,PA,status,PR,status,RH,status,SR,status,TA,status,DirAvg,status,SpdAvg,
2012-08-20, 00:00:04,VALID,1010.47,VALID,0,VALID,104,VALID,0,VALID,23.5948,VALID,12,VALID,0,
2012-08-20, 00:01:04,VALID,1010.45,VALID,0,VALID,104,VALID,0,VALID,23.6338,VALID,12,VALID,0,
2012-08-20, 00:02:04,VALID,1010.44,VALID,0,VALID,104,VALID,0,VALID,23.655,VALID,12,VALID,0,
2012-08-20, 00:03:04,VALID,1010.43,VALID,0,VALID,104,VALID,0,VALID,23.6727,VALID,12,VALID,0,
2012-08-20, 00:04:04,VALID,1010.41,VALID,0,VALID,104,VALID,0.112112,VALID,23.694,VALID,12,VALID,0,
2012-08-20, 00:05:04,VALID,1010.44,VALID,0,VALID,104,VALID,0,VALID,23.6745,VALID,12,VALID,0,
2012-08-20, 00:06:04,VALID,1010.42,VALID,0,VALID,104,VALID,0,VALID,23.655,VALID,12,VALID,0,
2012-08-20, 00:07:04,VALID,1010.41,VALID,0,VALID,104,VALID,0,VALID,23.6532,VALID,12,VALID,0,
2012-08-20, 00:08:04,VALID,1010.41,VALID,0,VALID,104,VALID,0,VALID,23.6356,VALID,12,VALID,0,
2012-08-20, 00:09:04,VALID,1010.45,VALID,0,VALID,104,VALID,0,VALID,23.6356,VALID,12,VALID,0,
2012-08-20, 00:10:04,VALID,1010.45,VALID,0,VALID,104,VALID,0,VALID,23.6532,VALID,12,VALID,0.109766,
2012-08-20, 00:11:04,VALID,1010.45,VALID,0,VALID,104,VALID,0.112112,VALID,23.7135,VALID,12,VALID,0,
2012-08-20, 00:12:04,VALID,1010.46,VALID,0,VALID,104,VALID,0.112112,VALID,23.7117,VALID,12,VALID,0,
2012-08-20, 00:13:04,VALID,1010.44,VALID,0,VALID,104,VALID,0,VALID,23.7525,VALID,12,VALID,0,
2012-08-20, 00:14:04,VALID,1010.44,VALID,0,VALID,104,VALID,0,VALID,23.733,VALID,12,VALID,0,
2012-08-20, 00:15:04,VALID,1010.42,VALID,0,VALID,104,VALID,0.112112,VALID,23.6922,VALID,12,VALID,0,
2012-08-20, 00:16:04,VALID,1010.44,VALID,0,VALID,104,VALID,0,VALID,23.655,VALID,12,VALID,0,
2012-08-20, 00:17:04,VALID,1010.44,VALID,0,VALID,104,VALID,0,VALID,23.655,VALID,12,VALID,0,
2012-08-20, 00:18:04,VALID,1010.42,VALID,0,VALID,104,VALID,0,VALID,23.5948,VALID,12,VALID,0,
2012-08-20, 00:19:04,VALID,1010.38,VALID,0,VALID,104,VALID,0,VALID,23.6161,VALID,12,VALID,0,
2012-08-20, 00:20:04,VALID,1010.38,VALID,0,VALID,104,VALID,0.112112,VALID,23.5948,VALID,12,VALID,0,
2012-08-20, 00:21:04,VALID,1010.35,VALID,0,VALID,104,VALID,0.112112,VALID,23.5966,VALID,12,VALID,0,
2012-08-20, 00:22:04,VALID,1010.36,VALID,0,VALID,104,VALID,0,VALID,23.5363,VALID,12,VALID,0,
2012-08-20, 00:23:04,VALID,1010.32,VALID,0,VALID,104,VALID,0,VALID,23.5381,VALID,12,VALID,0,
2012-08-20, 00:24:04,VALID,1010.31,VALID,0,VALID,104,VALID,0.112112,VALID,23.5186,VALID,12,VALID,0,
2012-08-20, 00:25:04,VALID,1010.28,VALID,0,VALID,104,VALID,0.112112,VALID,23.5186,VALID,12,VALID,0,
2012-08-20, 00:26:04,VALID,1010.27,VALID,0,VALID,104,VALID,0.112112,VALID,23.4779,VALID,12,VALID,0,
2012-08-20, 00:27:04,VALID,1010.26,VALID,0,VALID,104,VALID,0,VALID,23.4584,VALID,12,VALID,0,
2012-08-20, 00:28:04,VALID,1010.26,VALID,0,VALID,104,VALID,0.112112,VALID,23.4602,VALID,12,VALID,0,
2012-08-20, 00:29:04,VALID,1010.23,VALID,0,VALID,104,VALID,0,VALID,23.4602,VALID,12,VALID,0,
2012-08-20, 00:30:04,VALID,1010.22,VALID,0,VALID,104,VALID,0,VALID,23.4797,VALID,12,VALID,0,
2012-08-20, 00:31:04,VALID,1010.2,VALID,0,VALID,104,VALID,0.112112,VALID,23.4797,VALID,12,VALID,0,
2012-08-20, 00:32:04,VALID,1010.2,VALID,0,VALID,104,VALID,0.112112,VALID,23.4797,VALID,12,VALID,0,
2012-08-20, 00:33:04,VALID,1010.17,VALID,0,VALID,104,VALID,0,VALID,23.4602,VALID,12,VALID,0,
2012-08-20, 00:34:04,VALID,1010.16,VALID,0,VALID,104,VALID,0,VALID,23.4602,VALID,12,VALID,0,
2012-08-20, 00:35:04,VALID,1010.11,VALID,0,VALID,104,VALID,0,VALID,23.4407,VALID,12,VALID,0,
2012-08-20, 00:36:04,VALID,1010.14,VALID,0,VALID,104,VALID,0,VALID,23.4407,VALID,12,VALID,0,
2012-08-20, 00:37:04,VALID,1010.11,VALID,0,VALID,104,VALID,0,VALID,23.4212,VALID,12,VALID,0,
2012-08-20, 00:38:04,VALID,1010.12,VALID,0,VALID,104,VALID,0,VALID,23.4212,VALID,12,VALID,0,
2012-08-20, 00:39:04,VALID,1010.1,VALID,0,VALID,104,VALID,0,VALID,23.4,VALID,12,VALID,0,
2012-08-20, 00:40:04,VALID,1010.12,VALID,0,VALID,104,VALID,0,VALID,23.3805,VALID,12,VALID,0,
2012-08-20, 00:41:04,VALID,1010.1,VALID,0,VALID,104,VALID,0,VALID,23.4017,VALID,12,VALID,0,
2012-08-20, 00:42:04,VALID,1010.13,VALID,0,VALID,104,VALID,0,VALID,23.4017,VALID,12,VALID,0,
2012-08-20, 00:43:04,VALID,1010.1,VALID,0,VALID,104,VALID,0,VALID,23.4017,VALID,12,VALID,0,
2012-08-20, 00:44:04,VALID,1010.08,VALID,0,VALID,104,VALID,0,VALID,23.4212,VALID,12,VALID,0,
2012-08-20, 00:45:04,VALID,1010.08,VALID,0,VALID,104,VALID,0,VALID,23.4212,VALID,12,VALID,0,
2012-08-20, 00:46:04,VALID,1010.11,VALID,0,VALID,104,VALID,0,VALID,23.4194,VALID,12,VALID,0,
2012-08-20, 00:47:04,VALID,1010.08,VALID,0,VALID,104,VALID,0,VALID,23.4407,VALID,12,VALID,0,
2012-08-20, 00:48:04,VALID,1010.08,VALID,0,VALID,104,VALID,0,VALID,23.4407,VALID,12,VALID,0,
2012-08-20, 00:49:04,VALID,1010.08,VALID,0,VALID,104,VALID,0.112112,VALID,23.4194,VALID,12,VALID,0,
2012-08-20, 00:50:04,VALID,1010.06,VALID,0,VALID,104,VALID,0,VALID,23.4212,VALID,12,VALID,0,
2012-08-20, 00:51:04,VALID,1010.06,VALID,0,VALID,104,VALID,0,VALID,23.3805,VALID,12,VALID,0,
2012-08-20, 00:52:04,VALID,1010.03,VALID,0,VALID,104,VALID,0,VALID,23.4212,VALID,12,VALID,0,
2012-08-20, 00:53:04,VALID,1010.04,VALID,0,VALID,104,VALID,0,VALID,23.3823,VALID,12,VALID,0,
2012-08-20, 00:54:04,VALID,1010.02,VALID,0,VALID,104,VALID,0,VALID,23.4017,VALID,12,VALID,0,
2012-08-20, 00:55:04,VALID,1010.03,VALID,0,VALID,104,VALID,0,VALID,23.3823,VALID,12,VALID,0,
2012-08-20, 00:56:04,VALID,1010.01,VALID,0,VALID,104,VALID,0.112112,VALID,23.3415,VALID,12,VALID,0,
2012-08-20, 00:57:04,VALID,1010,VALID,0,VALID,104,VALID,0,VALID,23.3433,VALID,12,VALID,0,
2012-08-20, 00:58:04,VALID,1010.01,VALID,0,VALID,104,VALID,0,VALID,23.3043,VALID,12,VALID,0,
2012-08-20, 00:59:04,VALID,1009.99,VALID,0,VALID,104,VALID,0.112112,VALID,23.2848,VALID,12,VALID,0,
2012-08-20, 01:00:04,VALID,1009.99,VALID,0,VALID,104,VALID,0,VALID,23.2831,VALID,12,VALID,0,
2012-08-20, 01:01:04,VALID,1009.94,VALID,0,VALID,104,VALID,0,VALID,23.2441,VALID,12,VALID,0,
2012-08-20, 01:02:04,VALID,1009.93,VALID,0,VALID,104,VALID,0,VALID,23.2441,VALID,12,VALID,0,
2012-08-20, 01:03:04,VALID,1009.91,VALID,0,VALID,104,VALID,0,VALID,23.2459,VALID,12,VALID,0,
2012-08-20, 01:04:04,VALID,1009.9,VALID,0,VALID,104,VALID,0,VALID,23.2459,VALID,12,VALID,0,
2012-08-20, 01:05:04,VALID,1009.89,VALID,0,VALID,104,VALID,0,VALID,23.2264,VALID,12,VALID,0,
2012-08-20, 01:06:04,VALID,1009.87,VALID,0,VALID,104,VALID,0.112112,VALID,23.2264,VALID,12,VALID,0,
2012-08-20, 01:07:04,VALID,1009.84,VALID,0,VALID,104,VALID,0.112112,VALID,23.1857,VALID,12,VALID,0,
2012-08-20, 01:08:04,VALID,1009.82,VALID,0,VALID,104,VALID,0,VALID,23.1874,VALID,12,VALID,0,
2012-08-20, 01:09:04,VALID,1009.79,VALID,0,VALID,104,VALID,0,VALID,23.1485,VALID,12,VALID,0,
2012-08-20, 01:10:04,VALID,1009.78,VALID,0,VALID,104,VALID,0,VALID,23.1874,VALID,12,VALID,0,
2012-08-20, 01:11:04,VALID,1009.75,VALID,0,VALID,104,VALID,0.112112,VALID,23.2069,VALID,12,VALID,0,
2012-08-20, 01:12:04,VALID,1009.76,VALID,0,VALID,104,VALID,0.112112,VALID,23.2051,VALID,12,VALID,0,
2012-08-20, 01:13:04,VALID,1009.78,VALID,0,VALID,104,VALID,0.112112,VALID,23.2264,VALID,12,VALID,0,
2012-08-20, 01:14:04,VALID,1009.78,VALID,0,VALID,104,VALID,0,VALID,23.1874,VALID,12,VALID,0,
2012-08-20, 01:15:04,VALID,1009.8,VALID,0,VALID,104,VALID,0,VALID,23.1662,VALID,12,VALID,0,
2012-08-20, 01:16:04,VALID,1009.84,VALID,0,VALID,104,VALID,0.112112,VALID,23.1662,VALID,12,VALID,0,
2012-08-20, 01:17:04,VALID,1009.84,VALID,0,VALID,104,VALID,0,VALID,23.1679,VALID,12,VALID,0,
2012-08-20, 01:18:04,VALID,1009.85,VALID,0,VALID,104,VALID,0,VALID,23.1679,VALID,12,VALID,0,
2012-08-20, 01:19:04,VALID,1009.84,VALID,0,VALID,104,VALID,0,VALID,23.1485,VALID,12,VALID,0,
2012-08-20, 01:20:04,VALID,1009.82,VALID,0,VALID,104,VALID,0.112112,VALID,23.1485,VALID,12,VALID,0,
2012-08-20, 01:21:04,VALID,1009.79,VALID,0,VALID,104,VALID,0,VALID,23.1485,VALID,12,VALID,0,
2012-08-20, 01:22:04,VALID,1009.75,VALID,0,VALID,104,VALID,0.112112,VALID,23.1467,VALID,12,VALID,0.151953,
2012-08-20, 01:23:04,VALID,1009.77,VALID,0,VALID,104,VALID,0,VALID,23.1485,VALID,12,VALID,0,
2012-08-20, 01:24:04,VALID,1009.77,VALID,0,VALID,104,VALID,0.112112,VALID,23.1272,VALID,12,VALID,0,
2012-08-20, 01:25:04,VALID,1009.78,VALID,0,VALID,104,VALID,0.112112,VALID,23.1679,VALID,12,VALID,0,
2012-08-20, 01:26:04,VALID,1009.74,VALID,0,VALID,104,VALID,0,VALID,23.1467,VALID,12,VALID,0,
2012-08-20, 01:27:04,VALID,1009.75,VALID,0,VALID,104,VALID,0,VALID,23.1485,VALID,12,VALID,0,
2012-08-20, 01:28:04,VALID,1009.76,VALID,0,VALID,104,VALID,0.112112,VALID,23.0883,VALID,12,VALID,0,
2012-08-20, 01:29:04,VALID,1009.75,VALID,0,VALID,104,VALID,0,VALID,23.0511,VALID,12,VALID,0,
2012-08-20, 01:30:04,VALID,1009.73,VALID,0,VALID,104,VALID,0,VALID,23.0121,VALID,12,VALID,0,
2012-08-20, 01:31:04,VALID,1009.72,VALID,0,VALID,104,VALID,0.112112,VALID,22.9926,VALID,12,VALID,0,
2012-08-20, 01:32:04,VALID,1009.73,VALID,0,VALID,104,VALID,0.112112,VALID,22.9926,VALID,12,VALID,0,
2012-08-20, 01:33:04,VALID,1009.71,VALID,0,VALID,104,VALID,0,VALID,22.9926,VALID,12,VALID,0,
2012-08-20, 01:34:04,VALID,1009.73,VALID,0,VALID,104,VALID,0,VALID,22.9926,VALID,12,VALID,0,
2012-08-20, 01:35:04,VALID,1009.71,VALID,0,VALID,104,VALID,0,VALID,22.9926,VALID,12,VALID,0,
2012-08-20, 01:36:04,VALID,1009.7,VALID,0,VALID,104,VALID,0,VALID,23.0121,VALID,12,VALID,0,
2012-08-20, 01:37:04,VALID,1009.69,VALID,0,VALID,104,VALID,0,VALID,23.0121,VALID,12,VALID,0,
2012-08-20, 01:38:04,VALID,1009.66,VALID,0,VALID,104,VALID,0.112112,VALID,22.9731,VALID,12,VALID,0,
2012-08-20, 01:39:04,VALID,1009.67,VALID,0,VALID,104,VALID,0,VALID,22.9714,VALID,12,VALID,0,
2012-08-20, 01:40:04,VALID,1009.63,VALID,0,VALID,104,VALID,0,VALID,22.9714,VALID,12,VALID,0,
2012-08-20, 01:41:04,VALID,1009.61,VALID,0,VALID,104,VALID,0,VALID,22.9731,VALID,12,VALID,0,
2012-08-20, 01:42:04,VALID,1009.56,VALID,0,VALID,104,VALID,0.112112,VALID,22.9324,VALID,12,VALID,0,
2012-08-20, 01:43:04,VALID,1009.57,VALID,0,VALID,104,VALID,0,VALID,22.9536,VALID,12,VALID,0,
2012-08-20, 01:44:04,VALID,1009.56,VALID,0,VALID,104,VALID,0,VALID,22.9714,VALID,12,VALID,0,
2012-08-20, 01:45:04,VALID,1009.56,VALID,0,VALID,104,VALID,0,VALID,23.0121,VALID,12,VALID,0,
2012-08-20, 01:46:04,VALID,1009.55,VALID,0,VALID,104,VALID,0,VALID,23.0511,VALID,12,VALID,0,
2012-08-20, 01:47:04,VALID,1009.54,VALID,0,VALID,104,VALID,0,VALID,23.0103,VALID,12,VALID,0,
2012-08-20, 01:48:04,VALID,1009.54,VALID,0,VALID,104,VALID,0,VALID,23.0121,VALID,12,VALID,0,
2012-08-20, 01:49:04,VALID,1009.51,VALID,0,VALID,104,VALID,0,VALID,23.0121,VALID,12,VALID,0,
2012-08-20, 01:50:04,VALID,1009.51,VALID,0,VALID,104,VALID,0,VALID,22.9926,VALID,12,VALID,0,
2012-08-20, 01:51:04,VALID,1009.51,VALID,0,VALID,104,VALID,0,VALID,22.9714,VALID,12,VALID,0,
2012-08-20, 01:52:04,VALID,1009.47,VALID,0,VALID,104,VALID,0,VALID,22.9926,VALID,12,VALID,0,
2012-08-20, 01:53:04,VALID,1009.48,VALID,0,VALID,104,VALID,0,VALID,22.9731,VALID,12,VALID,0,
2012-08-20, 01:54:04,VALID,1009.49,VALID,0,VALID,104,VALID,0,VALID,22.9342,VALID,12,VALID,0,
2012-08-20, 01:55:04,VALID,1009.45,VALID,0,VALID,104,VALID,0,VALID,22.9749,VALID,12,VALID,0,
2012-08-20, 01:56:04,VALID,1009.47,VALID,0,VALID,104,VALID,0,VALID,22.9731,VALID,12,VALID,0,
2012-08-20, 01:57:04,VALID,1009.48,VALID,0,VALID,104,VALID,0,VALID,22.9536,VALID,12,VALID,0,
2012-08-20, 01:58:04,VALID,1009.47,VALID,0,VALID,104,VALID,0,VALID,22.9324,VALID,12,VALID,0,
2012-08-20, 01:59:04,VALID,1009.47,VALID,0,VALID,104,VALID,0,VALID,22.9147,VALID,12,VALID,0,
2012-08-20, 02:00:04,VALID,1009.46,VALID,0,VALID,104,VALID,0,VALID,22.9147,VALID,12,VALID,0,
2012-08-20, 02:01:04,VALID,1009.45,VALID,0,VALID,104,VALID,0,VALID,22.8757,VALID,12,VALID,0,
2012-08-20, 02:02:04,VALID,1009.44,VALID,0,VALID,104,VALID,0,VALID,22.835,VALID,12,VALID,0,
2012-08-20, 02:03:04,VALID,1009.44,VALID,0,VALID,104,VALID,0,VALID,22.8368,VALID,12,VALID,0,
2012-08-20, 02:04:04,VALID,1009.43,VALID,0,VALID,104,VALID,0,VALID,22.8368,VALID,12,VALID,0,
2012-08-20, 02:05:04,VALID,1009.47,VALID,0,VALID,104,VALID,0,VALID,22.8368,VALID,12,VALID,0,
2012-08-20, 02:06:04,VALID,1009.48,VALID,0,VALID,104,VALID,0,VALID,22.8368,VALID,12,VALID,0,
2012-08-20, 02:07:04,VALID,1009.51,VALID,0,VALID,104,VALID,0,VALID,22.8368,VALID,12,VALID,0,
2012-08-20, 02:08:04,VALID,1009.52,VALID,0,VALID,104,VALID,0.112112,VALID,22.7961,VALID,12,VALID,0,
2012-08-20, 02:09:04,VALID,1009.56,VALID,0,VALID,104,VALID,0.112112,VALID,22.8562,VALID,12,VALID,0,
2012-08-20, 02:10:04,VALID,1009.62,VALID,0,VALID,104,VALID,0,VALID,22.8155,VALID,12,VALID,0,
2012-08-20, 02:11:04,VALID,1009.61,VALID,0,VALID,104,VALID,0.112112,VALID,22.8173,VALID,12,VALID,0,
2012-08-20, 02:12:04,VALID,1009.62,VALID,0,VALID,104,VALID,0,VALID,22.7961,VALID,12,VALID,0,
2012-08-20, 02:13:04,VALID,1009.65,VALID,0,VALID,104,VALID,0.112112,VALID,22.8173,VALID,12,VALID,0,
2012-08-20, 02:14:04,VALID,1009.65,VALID,0,VALID,104,VALID,0,VALID,22.8155,VALID,12,VALID,0,
2012-08-20, 02:15:04,VALID,1009.67,VALID,0,VALID,104,VALID,0,VALID,22.8173,VALID,12,VALID,0,
2012-08-20, 02:16:04,VALID,1009.66,VALID,0,VALID,104,VALID,0,VALID,22.7961,VALID,12,VALID,0,
2012-08-20, 02:17:04,VALID,1009.65,VALID,0,VALID,104,VALID,0.112112,VALID,22.8368,VALID,12,VALID,0,
2012-08-20, 02:18:04,VALID,1009.62,VALID,0,VALID,104,VALID,0.112112,VALID,22.7961,VALID,12,VALID,0,
2012-08-20, 02:19:04,VALID,1009.61,VALID,0,VALID,104,VALID,0.112112,VALID,22.8155,VALID,12,VALID,0,
2012-08-20, 02:20:04,VALID,1009.62,VALID,0,VALID,104,VALID,0,VALID,22.8173,VALID,12,VALID,0,
2012-08-20, 02:21:04,VALID,1009.62,VALID,0,VALID,104,VALID,0.112112,VALID,22.8155,VALID,12,VALID,0,
2012-08-20, 02:22:04,VALID,1009.61,VALID,0,VALID,104,VALID,0,VALID,22.7978,VALID,12,VALID,0,
2012-08-20, 02:23:04,VALID,1009.63,VALID,0,VALID,104,VALID,0.112112,VALID,22.7766,VALID,12,VALID,0,
2012-08-20, 02:24:04,VALID,1009.64,VALID,0,VALID,104,VALID,0,VALID,22.7783,VALID,12,VALID,0,
2012-08-20, 02:25:04,VALID,1009.65,VALID,0,VALID,104,VALID,0,VALID,22.7783,VALID,12,VALID,0,
2012-08-20, 02:26:04,VALID,1009.64,VALID,0,VALID,104,VALID,0,VALID,22.7588,VALID,12,VALID,0,
2012-08-20, 02:27:04,VALID,1009.64,VALID,0,VALID,104,VALID,0.112112,VALID,22.7588,VALID,12,VALID,0,
2012-08-20, 02:28:04,VALID,1009.65,VALID,0,VALID,104,VALID,0,VALID,22.7394,VALID,12,VALID,0,
2012-08-20, 02:29:04,VALID,1009.63,VALID,0,VALID,104,VALID,0.112112,VALID,22.7199,VALID,12,VALID,0,
2012-08-20, 02:30:04,VALID,1009.63,VALID,0,VALID,104,VALID,0.112112,VALID,22.7394,VALID,12,VALID,0,
2012-08-20, 02:31:04,VALID,1009.64,VALID,0,VALID,104,VALID,0,VALID,22.7411,VALID,12,VALID,0,
2012-08-20, 02:32:04,VALID,1009.65,VALID,0,VALID,104,VALID,0,VALID,22.7411,VALID,12,VALID,0,
2012-08-20, 02:33:04,VALID,1009.66,VALID,0,VALID,104,VALID,0,VALID,22.7411,VALID,12,VALID,0,
2012-08-20, 02:34:04,VALID,1009.66,VALID,0,VALID,104,VALID,0,VALID,22.7411,VALID,12,VALID,0,
2012-08-20, 02:35:04,VALID,1009.67,VALID,0,VALID,104,VALID,0,VALID,22.7216,VALID,12,VALID,0,
2012-08-20, 02:36:04,VALID,1009.68,VALID,0,VALID,104,VALID,0,VALID,22.7216,VALID,12,VALID,0,
2012-08-20, 02:37:04,VALID,1009.69,VALID,0,VALID,104,VALID,0,VALID,22.7216,VALID,12,VALID,0,
2012-08-20, 02:38:04,VALID,1009.67,VALID,0,VALID,104,VALID,0,VALID,22.7021,VALID,12,VALID,0,
2012-08-20, 02:39:04,VALID,1009.65,VALID,0,VALID,104,VALID,0,VALID,22.7021,VALID,12,VALID,0,
2012-08-20, 02:40:04,VALID,1009.62,VALID,0,VALID,104,VALID,0,VALID,22.7606,VALID,8,VALID,0,
2012-08-20, 02:41:04,VALID,1009.65,VALID,0,VALID,104,VALID,0,VALID,22.7606,VALID,8,VALID,0,
2012-08-20, 02:42:04,VALID,1009.62,VALID,0,VALID,104,VALID,0,VALID,22.78,VALID,8,VALID,0,
2012-08-20, 02:43:04,VALID,1009.6,VALID,0,VALID,104,VALID,0,VALID,22.7606,VALID,8,VALID,0,
2012-08-20, 02:44:04,VALID,1009.6,VALID,0,VALID,104,VALID,0,VALID,22.7606,VALID,8,VALID,0,
2012-08-20, 02:45:04,VALID,1009.61,VALID,0,VALID,104,VALID,0,VALID,22.78,VALID,8,VALID,0,
2012-08-20, 02:46:04,VALID,1009.61,VALID,0,VALID,104,VALID,0,VALID,22.7978,VALID,8,VALID,0,
2012-08-20, 02:47:04,VALID,1009.62,VALID,0,VALID,104,VALID,0,VALID,22.7978,VALID,8,VALID,0,
2012-08-20, 02:48:04,VALID,1009.64,VALID,0,VALID,104,VALID,0,VALID,22.7571,VALID,8,VALID,0,
2012-08-20, 02:49:04,VALID,1009.64,VALID,0,VALID,104,VALID,0,VALID,22.7783,VALID,8,VALID,0,
2012-08-20, 02:50:04,VALID,1009.61,VALID,0,VALID,104,VALID,0.112112,VALID,22.7783,VALID,8,VALID,0,
2012-08-20, 02:51:04,VALID,1009.61,VALID,0,VALID,104,VALID,0,VALID,22.7783,VALID,8,VALID,0,
2012-08-20, 02:52:04,VALID,1009.62,VALID,0,VALID,104,VALID,0,VALID,22.7783,VALID,8,VALID,0,
2012-08-20, 02:53:04,VALID,1009.6,VALID,0,VALID,104,VALID,0.112112,VALID,22.7588,VALID,8,VALID,0,
2012-08-20, 02:54:04,VALID,1009.6,VALID,0,VALID,104,VALID,0,VALID,22.7588,VALID,8,VALID,0,
2012-08-20, 02:55:04,VALID,1009.59,VALID,0,VALID,104,VALID,0,VALID,22.7199,VALID,8,VALID,0,
2012-08-20, 02:56:04,VALID,1009.6,VALID,0,VALID,104,VALID,0,VALID,22.7394,VALID,8,VALID,0,
2012-08-20, 02:57:04,VALID,1009.62,VALID,0,VALID,104,VALID,0,VALID,22.7199,VALID,8,VALID,0,
2012-08-20, 02:58:04,VALID,1009.57,VALID,0,VALID,104,VALID,0,VALID,22.7182,VALID,8,VALID,0,
2012-08-20, 02:59:04,VALID,1009.56,VALID,0,VALID,104,VALID,0,VALID,22.7394,VALID,8,VALID,0,
2012-08-20, 03:00:04,VALID,1009.57,VALID,0,VALID,104,VALID,0,VALID,22.7199,VALID,8,VALID,0,
2012-08-20, 03:01:04,VALID,1009.57,VALID,0,VALID,104,VALID,0,VALID,22.7004,VALID,8,VALID,0,
2012-08-20, 03:02:04,VALID,1009.54,VALID,0,VALID,104,VALID,0,VALID,22.7004,VALID,8,VALID,0,
2012-08-20, 03:03:04,VALID,1009.53,VALID,0,VALID,104,VALID,0,VALID,22.7004,VALID,8,VALID,0,
2012-08-20, 03:04:04,VALID,1009.52,VALID,0,VALID,104,VALID,0,VALID,22.7216,VALID,8,VALID,0,
2012-08-20, 03:05:04,VALID,1009.52,VALID,0,VALID,104,VALID,0.112112,VALID,22.7004,VALID,8,VALID,0,
2012-08-20, 03:06:04,VALID,1009.5,VALID,0,VALID,104,VALID,0,VALID,22.6809,VALID,8,VALID,0,
2012-08-20, 03:07:04,VALID,1009.5,VALID,0,VALID,104,VALID,0.112112,VALID,22.7004,VALID,8,VALID,0,
2012-08-20, 03:08:04,VALID,1009.5,VALID,0,VALID,104,VALID,0,VALID,22.7004,VALID,8,VALID,0,
2012-08-20, 03:09:04,VALID,1009.46,VALID,0,VALID,104,VALID,0,VALID,22.7199,VALID,8,VALID,0,
2012-08-20, 03:10:04,VALID,1009.49,VALID,0,VALID,104,VALID,0,VALID,22.7199,VALID,8,VALID,0,
2012-08-20, 03:11:04,VALID,1009.46,VALID,0,VALID,104,VALID,0,VALID,22.7199,VALID,8,VALID,0,
2012-08-20, 03:12:04,VALID,1009.46,VALID,0,VALID,104,VALID,0,VALID,22.7394,VALID,8,VALID,0,
2012-08-20, 03:13:04,VALID,1009.42,VALID,0,VALID,104,VALID,0.112112,VALID,22.7394,VALID,8,VALID,0,
2012-08-20, 03:14:04,VALID,1009.4,VALID,0,VALID,104,VALID,0,VALID,22.7394,VALID,8,VALID,0,
2012-08-20, 03:15:04,VALID,1009.41,VALID,0,VALID,104,VALID,0,VALID,22.7199,VALID,8,VALID,0,
2012-08-20, 03:16:04,VALID,1009.42,VALID,0,VALID,104,VALID,0,VALID,22.7182,VALID,8,VALID,0,
2012-08-20, 03:17:04,VALID,1009.39,VALID,0,VALID,104,VALID,0,VALID,22.7394,VALID,8,VALID,0,
2012-08-20, 03:18:04,VALID,1009.38,VALID,0,VALID,104,VALID,0.112112,VALID,22.7182,VALID,8,VALID,0,
2012-08-20, 03:19:04,VALID,1009.37,VALID,0,VALID,104,VALID,0,VALID,22.7182,VALID,8,VALID,0,
2012-08-20, 03:20:04,VALID,1009.35,VALID,0,VALID,104,VALID,0,VALID,22.7588,VALID,8,VALID,0,
2012-08-20, 03:21:04,VALID,1009.35,VALID,0,VALID,104,VALID,0,VALID,22.7588,VALID,8,VALID,0,
2012-08-20, 03:22:04,VALID,1009.32,VALID,0,VALID,104,VALID,0,VALID,22.7394,VALID,8,VALID,0,
2012-08-20, 03:23:04,VALID,1009.33,VALID,0,VALID,104,VALID,0,VALID,22.7411,VALID,8,VALID,0,
2012-08-20, 03:24:04,VALID,1009.34,VALID,0,VALID,104,VALID,0,VALID,22.7004,VALID,8,VALID,0,
2012-08-20, 03:25:04,VALID,1009.33,VALID,0,VALID,104,VALID,0,VALID,22.7004,VALID,8,VALID,0,
2012-08-20, 03:26:04,VALID,1009.32,VALID,0,VALID,104,VALID,0,VALID,22.7004,VALID,8,VALID,0,
2012-08-20, 03:27:04,VALID,1009.3,VALID,0,VALID,104,VALID,0,VALID,22.7216,VALID,8,VALID,0,
2012-08-20, 03:28:04,VALID,1009.32,VALID,0,VALID,104,VALID,0.112112,VALID,22.6597,VALID,8,VALID,0,
2012-08-20, 03:29:04,VALID,1009.31,VALID,0,VALID,104,VALID,0,VALID,22.7004,VALID,8,VALID,0,
2012-08-20, 03:30:04,VALID,1009.28,VALID,0,VALID,104,VALID,0.112112,VALID,22.7182,VALID,8,VALID,0,
2012-08-20, 03:31:04,VALID,1009.3,VALID,0,VALID,104,VALID,0,VALID,22.7376,VALID,8,VALID,0,
2012-08-20, 03:32:04,VALID,1009.28,VALID,0,VALID,104,VALID,0,VALID,22.7376,VALID,8,VALID,0,
2012-08-20, 03:33:04,VALID,1009.28,VALID,0,VALID,104,VALID,0,VALID,22.7588,VALID,8,VALID,0,
2012-08-20, 03:34:04,VALID,1009.27,VALID,0,VALID,104,VALID,0,VALID,22.7588,VALID,8,VALID,0,
2012-08-20, 03:35:04,VALID,1009.25,VALID,0,VALID,104,VALID,0,VALID,22.7588,VALID,8,VALID,0,
2012-08-20, 03:36:04,VALID,1009.24,VALID,0,VALID,104,VALID,0,VALID,22.7588,VALID,8,VALID,0,
2012-08-20, 03:37:04,VALID,1009.23,VALID,0,VALID,104,VALID,0,VALID,22.7783,VALID,8,VALID,0,
2012-08-20, 03:38:04,VALID,1009.22,VALID,0,VALID,104,VALID,0,VALID,22.7783,VALID,8,VALID,0,
2012-08-20, 03:39:04,VALID,1009.18,VALID,0,VALID,104,VALID,0,VALID,22.7978,VALID,8,VALID,0,
2012-08-20, 03:40:04,VALID,1009.21,VALID,0,VALID,104,VALID,0,VALID,22.7978,VALID,8,VALID,0,
2012-08-20, 03:41:04,VALID,1009.2,VALID,0,VALID,104,VALID,0,VALID,22.8173,VALID,8,VALID,0,
2012-08-20, 03:42:04,VALID,1009.17,VALID,0,VALID,104,VALID,0,VALID,22.7961,VALID,8,VALID,0,
2012-08-20, 03:43:04,VALID,1009.19,VALID,0,VALID,104,VALID,0,VALID,22.7978,VALID,8,VALID,0,
2012-08-20, 03:44:04,VALID,1009.19,VALID,0,VALID,104,VALID,0,VALID,22.7783,VALID,8,VALID,0,
2012-08-20, 03:45:04,VALID,1009.21,VALID,0,VALID,104,VALID,0.112112,VALID,22.7783,VALID,8,VALID,0,
2012-08-20, 03:46:04,VALID,1009.21,VALID,0,VALID,104,VALID,0,VALID,22.7394,VALID,8,VALID,0,
2012-08-20, 03:47:04,VALID,1009.16,VALID,0,VALID,104,VALID,0,VALID,22.6987,VALID,8,VALID,0,
2012-08-20, 03:48:04,VALID,1009.19,VALID,0,VALID,104,VALID,0,VALID,22.7199,VALID,8,VALID,0,
2012-08-20, 03:49:04,VALID,1009.17,VALID,0,VALID,104,VALID,0,VALID,22.7182,VALID,8,VALID,0,
2012-08-20, 03:50:04,VALID,1009.15,VALID,0,VALID,104,VALID,0,VALID,22.7394,VALID,8,VALID,0,
2012-08-20, 03:51:04,VALID,1009.14,VALID,0,VALID,104,VALID,0,VALID,22.6987,VALID,8,VALID,0,
2012-08-20, 03:52:04,VALID,1009.14,VALID,0,VALID,104,VALID,0,VALID,22.7394,VALID,8,VALID,0,
2012-08-20, 03:53:04,VALID,1009.12,VALID,0,VALID,104,VALID,0,VALID,22.7199,VALID,8,VALID,0,
2012-08-20, 03:54:04,VALID,1009.16,VALID,0,VALID,104,VALID,0,VALID,22.7199,VALID,8,VALID,0,
2012-08-20, 03:55:04,VALID,1009.15,VALID,0,VALID,104,VALID,0,VALID,22.7199,VALID,8,VALID,0,
2012-08-20, 03:56:04,VALID,1009.14,VALID,0,VALID,104,VALID,0,VALID,22.7004,VALID,8,VALID,0,
2012-08-20, 03:57:04,VALID,1009.17,VALID,0,VALID,104,VALID,0,VALID,22.6792,VALID,8,VALID,0,
2012-08-20, 03:58:04,VALID,1009.2,VALID,0,VALID,104,VALID,0,VALID,22.6614,VALID,8,VALID,0,
2012-08-20, 03:59:04,VALID,1009.2,VALID,0,VALID,104,VALID,0,VALID,22.6614,VALID,8,VALID,0,
2012-08-20, 04:00:04,VALID,1009.2,VALID,0,VALID,104,VALID,0,VALID,22.6402,VALID,8,VALID,0,
2012-08-20, 04:01:04,VALID,1009.21,VALID,0,VALID,104,VALID,0,VALID,22.642,VALID,8,VALID,0,
2012-08-20, 04:02:04,VALID,1009.23,VALID,0,VALID,104,VALID,0,VALID,22.642,VALID,8,VALID,0,
2012-08-20, 04:03:04,VALID,1009.22,VALID,0,VALID,104,VALID,0,VALID,22.642,VALID,8,VALID,0,
2012-08-20, 04:04:04,VALID,1009.23,VALID,0,VALID,104,VALID,0,VALID,22.642,VALID,8,VALID,0,
2012-08-20, 04:05:04,VALID,1009.25,VALID,0,VALID,104,VALID,0,VALID,22.6225,VALID,8,VALID,0,
2012-08-20, 04:06:04,VALID,1009.25,VALID,0,VALID,104,VALID,0,VALID,22.642,VALID,8,VALID,0,
2012-08-20, 04:07:04,VALID,1009.24,VALID,0,VALID,104,VALID,0,VALID,22.6013,VALID,8,VALID,0,
2012-08-20, 04:08:04,VALID,1009.27,VALID,0,VALID,104,VALID,0,VALID,22.6225,VALID,8,VALID,0,
2012-08-20, 04:09:04,VALID,1009.26,VALID,0,VALID,104,VALID,0,VALID,22.6225,VALID,8,VALID,0,